Location: Raleigh
(35.7720°N, 78.6390°W)
Time: 05:51:40
(UTC-05:00)

Amateur Radio Satellites - All Passes

Search period start: 23 November 2014 05:21
Search period end: 24 November 2014 05:21
Location: Raleigh, 35.7720°N, 78.6390°W

Satellite Date Start Highest point End Downlink Frequencies (MHz)
Time Altitude Azimuth
JUGNU 23 Nov 05:22:42 05:23:39 10° 194° (SSW) 05:24:36 437.505
SRMSAT 23 Nov 05:24:40 05:28:00 15° 187° (S) 05:31:19 437.500
BEESAT 2 23 Nov 05:26:03 05:29:26 23° 52° (NE) 05:32:48 435.950
AO-7 23 Nov 05:29:03 05:37:01 51° 294° (WNW) 05:45:00 29.400- 29.500
STRAND 1 23 Nov 05:32:08 05:36:28 28° 68° (ENE) 05:40:48 437.568
YUBILEINY 23 Nov 05:36:36 05:37:54 10° 299° (WNW) 05:39:12 435.215
PRISM 23 Nov 05:37:06 05:41:17 89° 76° (ENE) 05:45:31 437.425
JAS-2 23 Nov 05:40:07 05:47:20 90° 285° (WNW) 05:53:38 435.910
PCSat 23 Nov 05:43:35 05:48:59 65° 62° (ENE) 05:54:21 145.827
AIST 2 23 Nov 05:45:53 05:49:02 20° 50° (NE) 05:52:09 435.215
O/OREOS (USA 219) 23 Nov 06:02:15 06:06:23 37° 105° (ESE) 06:10:31 437.305
Cubesat XI-IV 23 Nov 06:12:09 06:17:18 48° 100° (E) 06:22:24 437.490
CUBESAT XI-V 23 Nov 06:20:25 06:25:08 87° 77° (ENE) 06:29:53 437.345
BEESAT 3 23 Nov 06:51:11 06:55:01 36° 246° (WSW) 06:58:48 437.485
CUTE-I 23 Nov 06:54:27 06:59:43 67° 286° (WNW) 07:04:58 437.470
ISS 23 Nov 06:54:42 06:57:38 29° 35° (NE) 07:00:34 145.825
BEESAT 2 23 Nov 07:04:05 07:07:43 29° 248° (WSW) 07:11:18 435.950
STRAND 1 23 Nov 07:11:03 07:15:31 30° 263° (W) 07:20:01 437.568
AIST 1 23 Nov 07:21:48 07:26:12 80° 83° (E) 07:30:32
AIST 2 23 Nov 07:23:49 07:27:47 37° 246° (WSW) 07:31:42 435.215
GONETS M04 23 Nov 07:26:07 07:32:52 26° 83° (E) 07:39:39
JAS-2 23 Nov 07:27:28 07:31:08 15° 303° (WNW) 07:34:37 435.910
PCSat 23 Nov 07:29:03 07:31:46 14° 257° (WSW) 07:34:29 145.827
HO-68 23 Nov 07:35:47 07:37:49 11° 90° (E) 07:39:51 435.675
O/OREOS (USA 219) 23 Nov 07:42:49 07:45:54 18° 300° (WNW) 07:48:59 437.305
Cubesat XI-IV 23 Nov 07:53:19 07:56:59 19° 295° (WNW) 08:00:38 437.490
CUTE 1.7 & AOD 2 23 Nov 08:05:32 08:07:12 12° 92° (E) 08:08:52 437.475
BRITE-PL 23 Nov 08:10:37 08:12:19 12° 93° (E) 08:14:00 437.365/2234.400
ISS 23 Nov 08:31:29 08:34:12 24° 229° (SW) 08:36:54 145.825
SEEDS 23 Nov 08:40:56 08:44:36 28° 97° (E) 08:48:16 437.485
DX 1 23 Nov 08:50:52 08:51:52 11° 92° (E) 08:52:52 434.975-435.025
UNISAT 6 23 Nov 08:57:15 08:58:27 11° 65° (ENE) 08:59:39 437.425
CANX-2 23 Nov 09:04:00 09:08:17 70° 101° (E) 09:12:33 2200.000
AAUSAT CUBESAT 2 23 Nov 09:04:00 09:07:58 38° 98° (E) 09:11:55 437.432
DOVE 4 23 Nov 09:06:58 09:10:41 31° 98° (E) 09:14:28 437.250
NANOSAT C BR1 23 Nov 09:12:50 09:14:17 12° 65° (ENE) 09:15:43 145.865
COMPASS 1 23 Nov 09:16:53 09:21:06 65° 101° (E) 09:25:19 437.405
HO-68 23 Nov 09:19:10 09:26:23 83° 105° (ESE) 09:33:33 435.675
GONETS M04 23 Nov 09:20:19 09:28:57 61° 280° (W) 09:37:42
QB50P1 23 Nov 09:21:15 09:23:38 15° 67° (ENE) 09:26:01 145.935-145.965
ANTELSAT 23 Nov 09:23:14 09:26:35 23° 70° (ENE) 09:29:55 437.575/2403.000
DELFI C3 23 Nov 09:25:26 09:28:59 27° 97° (E) 09:32:31 145.870
GOMX 1 23 Nov 09:34:11 09:38:20 86° 283° (WNW) 09:42:35 467.674
CUTE 1.7 & AOD 2 23 Nov 09:39:14 09:43:22 48° 286° (WNW) 09:47:29 437.475
POPSAT HIP 1 23 Nov 09:44:14 09:47:50 27° 71° (ENE) 09:51:25 437.405
BRITE-PL 23 Nov 09:47:09 09:51:03 41° 286° (WNW) 09:54:58 437.365/2234.400
BUGSAT 1 23 Nov 09:47:10 09:50:37 24° 70° (ENE) 09:54:04 437.445
FUNcube-1 23 Nov 09:49:56 09:53:29 26° 97° (E) 09:57:04 145.935
UKube-1 23 Nov 09:51:41 09:55:59 59° 101° (E) 10:00:14 .
CUBEBUG 2 23 Nov 10:00:51 10:04:58 49° 100° (E) 10:09:10 437.445
Oscar 11 23 Nov 10:05:21 10:09:42 80° 283° (WNW) 10:14:03 145.826/435.025
CINEMA 3 23 Nov 10:05:45 10:09:57 85° 283° (WNW) 10:14:17 145.822/145.860
UWE-3 23 Nov 10:07:39 10:11:47 51° 100° (E) 10:15:59 435.000/436.395/437.385
POLYITAN 1 23 Nov 10:15:07 10:19:20 65° 75° (ENE) 10:23:34 437.675
SEEDS 23 Nov 10:17:04 10:20:15 21° 291° (WNW) 10:23:27 437.485
QB50P2 23 Nov 10:18:23 10:22:38 71° 76° (ENE) 10:26:54 145.880/145.840
TIGRISAT 23 Nov 10:18:33 10:22:50 80° 258° (WSW) 10:27:06 435.000
DX 1 23 Nov 10:24:09 10:28:24 54° 286° (WNW) 10:32:37 434.975-435.025
DUCHIFAT 1 23 Nov 10:26:29 10:30:45 87° 77° (ENE) 10:35:01 145.980
ESTCUBE 1 23 Nov 10:28:53 10:31:46 17° 94° (E) 10:34:38 437.505/2401.250
UNISAT 6 23 Nov 10:30:32 10:34:45 55° 260° (W) 10:38:57 437.425
SHINDAISAT 23 Nov 10:34:29 10:36:07 78° 116° (ESE) 10:37:47 437.305
VELOX 1 23 Nov 10:40:10 10:44:33 63° 101° (ESE) 10:48:55 145.980
AAUSAT CUBESAT 2 23 Nov 10:40:50 10:43:18 15° 293° (WNW) 10:45:47 437.432
DOVE 4 23 Nov 10:45:28 10:48:15 18° 291° (WNW) 10:51:04 437.250
NANOSAT C BR1 23 Nov 10:45:30 10:49:40 54° 260° (W) 10:53:51 145.865
ZACube-1 23 Nov 10:49:46 10:53:54 57° 285° (WNW) 10:58:06 437.345
QB50P1 23 Nov 10:55:08 10:59:10 41° 261° (W) 11:03:12 145.935-145.965
HUMSAT D 23 Nov 10:56:09 11:00:19 82° 283° (WNW) 11:04:31 437.325/437.525
ANTELSAT 23 Nov 10:59:42 11:03:16 25° 264° (W) 11:06:49 437.575/2403.000
DELFI C3 23 Nov 11:01:04 11:04:06 20° 291° (WNW) 11:07:08 145.870
AISAT 23 Nov 11:04:30 11:08:53 65° 285° (WNW) 11:13:14 437.250
50 SAT 23 Nov 11:05:37 11:09:40 75° 284° (WNW) 11:13:44 437.505
HO-68 23 Nov 11:08:51 11:13:12 17° 302° (WNW) 11:17:32 435.675
POPSAT HIP 1 23 Nov 11:20:24 11:23:41 21° 265° (W) 11:26:58 437.405
BUGSAT 1 23 Nov 11:22:32 11:26:01 24° 264° (W) 11:29:29 437.445
FUNcube-1 23 Nov 11:26:27 11:29:42 22° 290° (WNW) 11:32:59 145.935
CUBEBUG 1 23 Nov 11:28:54 11:33:17 80° 102° (ESE) 11:37:37 437.445
TISAT 1 23 Nov 11:30:08 11:33:00 18° 94° (E) 11:35:51 437.305
UKube-1 23 Nov 11:30:24 11:31:36 11° 296° (WNW) 11:32:48 .
SPROUT 23 Nov 11:30:35 11:33:12 16° 94° (E) 11:35:48 437.525
CUBEBUG 2 23 Nov 11:39:36 11:41:15 12° 294° (WNW) 11:42:56 437.445
UWE-3 23 Nov 11:46:22 11:47:54 12° 294° (WNW) 11:49:26 435.000/436.395/437.385
ESTCUBE 1 23 Nov 12:04:33 12:08:47 39° 288° (WNW) 12:12:58 437.505/2401.250
VELOX 1 23 Nov 12:19:36 12:20:34 11° 296° (WNW) 12:21:32 145.980
ITUPSAT 1 23 Nov 12:30:40 12:32:22 12° 92° (E) 12:34:04 437.325
DANDE 23 Nov 12:38:15 12:39:17 11° 95° (E) 12:40:16 436.750
SWISSCUBE 23 Nov 12:41:27 12:44:43 18° 94° (E) 12:47:56 437.505
Oscar 19 23 Nov 12:48:21 12:53:23 63° 74° (ENE) 12:58:26 437.125/150
TISAT 1 23 Nov 13:05:09 13:08:53 31° 289° (WNW) 13:12:35 437.305
SPROUT 23 Nov 13:05:28 13:09:24 36° 288° (WNW) 13:13:18 437.525
SO-50 23 Nov 13:11:27 13:16:09 46° 56° (NE) 13:20:51 436.795
BEESAT 23 Nov 13:12:16 13:16:40 36° 98° (E) 13:21:03 436.000
AUBIESAT-1 23 Nov 13:20:59 13:25:51 60° 105° (ESE) 13:30:36 437.475
M-CUBED/EXP-1 PRIME 23 Nov 13:24:02 13:28:59 71° 106° (ESE) 13:33:49 437.505
ITAMSAT 1 23 Nov 13:34:38 13:39:49 69° 74° (ENE) 13:45:01 435.822/435.867
YUBILEINY 23 Nov 13:44:29 13:53:00 55° 79° (E) 14:01:25 435.215
Gurwin Techsat 1B 23 Nov 13:49:43 13:54:51 52° 73° (ENE) 14:00:00 435.225
STARS 23 Nov 13:54:06 13:55:39 12° 92° (E) 13:57:12 437.465
ITUPSAT 1 23 Nov 14:05:52 14:10:37 61° 286° (WNW) 14:15:19 437.325
CUSAT 1 23 Nov 14:07:45 14:09:35 15° 282° (WNW) 14:11:18 437.405
SWISSCUBE 23 Nov 14:18:13 14:22:42 40° 288° (WNW) 14:27:08 437.505
DANDE 23 Nov 14:21:01 14:22:37 14° 282° (WNW) 14:24:07 436.750
KKS-1 23 Nov 14:26:15 14:30:30 44° 99° (E) 14:34:44 437.445
VERMONT LUNAR 23 Nov 14:26:26 14:29:11 21° 145° (SE) 14:31:56 437.305
Oscar 19 23 Nov 14:31:00 14:33:06 12° 268° (W) 14:35:13 437.125/150
AO-7 23 Nov 14:32:56 14:40:09 35° 62° (ENE) 14:47:25 29.400- 29.500
HORYU 2 23 Nov 14:37:02 14:41:25 69° 75° (ENE) 14:45:50 437.375
BEESAT 23 Nov 14:50:42 14:54:15 21° 293° (WNW) 14:57:47 436.000
SO-50 23 Nov 14:53:00 14:56:21 19° 251° (WSW) 14:59:42 436.795
AUBIESAT-1 23 Nov 14:57:28 15:00:17 16° 300° (WNW) 15:03:06 437.475
M-CUBED/EXP-1 PRIME 23 Nov 15:01:03 15:03:23 13° 301° (WNW) 15:05:42 437.505
ITAMSAT 1 23 Nov 15:17:50 15:19:43 12° 269° (W) 15:21:38 435.822/435.867
STARS 23 Nov 15:28:08 15:32:24 51° 286° (WNW) 15:36:38 437.465
Gurwin Techsat 1B 23 Nov 15:31:48 15:35:04 16° 267° (W) 15:38:21 435.225
MaSat-1 23 Nov 15:32:50 15:36:00 69° 112° (ESE) 15:38:52 437.345
PHONESAT 2.4 23 Nov 15:41:02 15:44:39 52° 152° (SSE) 15:48:17 2401.200-2431.200
YUBILEINY 23 Nov 15:42:13 15:49:13 28° 276° (W) 15:56:11 435.215
JAS-2 23 Nov 15:47:29 15:54:03 34° 66° (ENE) 16:00:52 435.910
RS-15 23 Nov 15:49:24 15:59:49 50° 110° (ESE) 16:10:07 29.354- 29.394
VERMONT LUNAR 23 Nov 16:03:46 16:07:24 83° 340° (NNW) 16:11:02 437.305
KKS-1 23 Nov 16:04:16 16:06:45 15° 294° (WNW) 16:09:13 437.445
O/OREOS (USA 219) 23 Nov 16:14:47 16:19:04 44° 66° (ENE) 16:23:21 437.305
AO-7 23 Nov 16:24:44 16:32:38 48° 259° (WSW) 16:40:36 29.400- 29.500
CUTE-I 23 Nov 16:35:47 16:39:13 18° 64° (ENE) 16:42:39 437.470
MOZHAYETS 4 23 Nov 16:47:02 16:51:25 39° 98° (E) 16:55:46
PHONESAT 2.4 23 Nov 17:19:54 17:23:31 48° 348° (NNW) 17:27:08 2401.200-2431.200
PRISM 23 Nov 17:24:38 17:27:18 16° 94° (E) 17:29:56 437.425
Cubesat XI-IV 23 Nov 17:31:17 17:36:33 61° 73° (ENE) 17:41:51 437.490
JAS-2 23 Nov 17:31:36 17:38:41 48° 262° (W) 17:46:13 435.910
VERMONT LUNAR 23 Nov 17:42:44 17:46:09 38° 356° (N) 17:49:35 437.305
STRAND 1 23 Nov 17:47:54 17:49:16 11° 91° (E) 17:50:37 437.568
O/OREOS (USA 219) 23 Nov 17:55:45 17:58:01 14° 261° (W) 18:00:17 437.305
RS-15 23 Nov 18:01:57 18:12:13 44° 311° (NW) 18:22:32 29.354- 29.394
CUTE-I 23 Nov 18:13:34 18:18:48 54° 259° (W) 18:24:03 437.470
CUBESAT XI-V 23 Nov 18:20:55 18:24:52 27° 96° (E) 18:28:47 437.345
MOZHAYETS 4 23 Nov 18:25:11 18:28:19 18° 293° (WNW) 18:31:26
PCSat 23 Nov 18:43:01 18:44:53 12° 102° (ESE) 18:46:45 145.827
PRISM 23 Nov 18:59:04 19:02:56 35° 288° (WNW) 19:06:46 437.425
PHONESAT 2.4 23 Nov 18:59:12 19:02:44 40° 5° (N) 19:06:15 2401.200-2431.200
Cubesat XI-IV 23 Nov 19:14:09 19:16:59 14° 268° (W) 19:19:50 437.490
BRITE-PL 23 Nov 19:18:35 19:21:22 15° 67° (ENE) 19:24:03 437.365/2234.400
VERMONT LUNAR 23 Nov 19:21:29 19:25:02 50° 13° (NNE) 19:28:34 437.305
STRAND 1 23 Nov 19:23:48 19:28:54 70° 285° (WNW) 19:33:57 437.568
SEEDS 23 Nov 19:32:10 19:34:27 15° 67° (ENE) 19:36:45 437.485
GONETS M04 23 Nov 19:34:07 19:42:51 61° 80° (E) 19:51:28
HO-68 23 Nov 19:44:26 19:51:11 47° 68° (ENE) 19:57:59 435.675
AIST 1 23 Nov 19:48:17 19:52:33 55° 94° (E) 19:56:52
AAUSAT CUBESAT 2 23 Nov 19:53:41 19:56:37 19° 69° (ENE) 19:59:33 437.432
CANX-2 23 Nov 19:54:43 19:58:31 34° 72° (ENE) 20:02:19 2200.000
CUBESAT XI-V 23 Nov 19:58:22 20:02:11 25° 291° (WNW) 20:05:58 437.345
COMPASS 1 23 Nov 20:06:18 20:09:56 30° 72° (ENE) 20:13:36 437.405
DOVE 4 23 Nov 20:10:20 20:14:12 26° 71° (ENE) 20:17:54 437.250
DELFI C3 23 Nov 20:13:26 20:15:15 13° 67° (ENE) 20:17:05 145.870
PCSat 23 Nov 20:22:10 20:27:34 75° 297° (WNW) 20:33:00 145.827
RS-15 23 Nov 20:23:01 20:28:39 15° 342° (NNW) 20:34:20 29.354- 29.394
CUTE 1.7 & AOD 2 23 Nov 20:29:16 20:33:28 83° 77° (ENE) 20:37:42 437.475
PHONESAT 2.4 23 Nov 20:38:02 20:41:46 89° 202° (SSW) 20:45:28 2401.200-2431.200
GOMX 1 23 Nov 20:39:08 20:44:05 75° 76° (ENE) 20:48:42 467.674
BEESAT 3 23 Nov 20:43:04 20:47:08 87° 118° (ESE) 20:51:18 437.485
UKube-1 23 Nov 20:44:18 20:48:15 35° 71° (ENE) 20:52:13 .
FUNcube-1 23 Nov 20:44:44 20:47:11 15° 68° (ENE) 20:49:37 145.935
BRITE-PL 23 Nov 20:54:23 20:59:30 55° 260° (W) 21:04:14 437.365/2234.400
BEESAT 2 23 Nov 20:56:20 21:00:25 73° 300° (WNW) 21:04:36 435.950
CUBEBUG 2 23 Nov 20:57:07 21:00:52 30° 72° (ENE) 21:04:33 437.445
Oscar 11 23 Nov 20:57:20 21:01:31 54° 75° (ENE) 21:05:43 145.826/435.025
VERMONT LUNAR 23 Nov 21:00:03 21:03:33 45° 209° (SSW) 21:07:01 437.305
UWE-3 23 Nov 21:02:51 21:06:34 29° 72° (ENE) 21:10:13 435.000/436.395/437.385
CINEMA 3 23 Nov 21:04:53 21:09:20 62° 76° (ENE) 21:13:35 145.822/145.860
SEEDS 23 Nov 21:06:00 21:09:55 40° 262° (W) 21:13:53 437.485
DX 1 23 Nov 21:16:44 21:21:07 88° 76° (ENE) 21:25:31 434.975-435.025
AIST 2 23 Nov 21:19:07 21:23:19 87° 299° (WNW) 21:27:37 435.215
ESTCUBE 1 23 Nov 21:27:38 21:29:18 12° 64° (ENE) 21:30:57 437.505/2401.250
AAUSAT CUBESAT 2 23 Nov 21:28:28 21:32:05 29° 263° (W) 21:35:44 437.432
AIST 1 23 Nov 21:29:32 21:30:34 11° 289° (WNW) 21:31:36
CANX-2 23 Nov 21:31:52 21:34:32 16° 266° (W) 21:37:12 2200.000
GONETS M04 23 Nov 21:32:11 21:38:55 26° 277° (W) 21:45:39
HO-68 23 Nov 21:32:54 21:38:59 30° 263° (W) 21:45:08 435.675
VELOX 1 23 Nov 21:35:25 21:39:35 40° 72° (ENE) 21:43:47 145.980
COMPASS 1 23 Nov 21:42:51 21:45:42 18° 266° (W) 21:48:34 437.405
ZACube-1 23 Nov 21:43:07 21:47:22 78° 77° (ENE) 21:51:34 437.345
HUMSAT D 23 Nov 21:45:51 21:49:50 47° 74° (ENE) 21:53:48 437.325/437.525
DELFI C3 23 Nov 21:46:18 21:50:09 43° 261° (W) 21:54:03 145.870
DOVE 4 23 Nov 21:47:55 21:51:52 26° 263° (W) 21:55:40 437.250
50 SAT 23 Nov 21:51:54 21:55:46 45° 74° (ENE) 21:59:37 437.505
AISAT 23 Nov 21:59:43 22:04:12 79° 76° (ENE) 22:08:42 437.250
POLYITAN 1 23 Nov 22:05:50 22:07:52 13° 93° (E) 22:09:54 437.675
QB50P2 23 Nov 22:08:39 22:10:59 14° 93° (E) 22:13:19 145.880/145.840
PCSat 23 Nov 22:10:28 22:11:54 11° 316° (NW) 22:13:19 145.827
TIGRISAT 23 Nov 22:13:36 22:17:18 26° 97° (E) 22:21:02 435.000
DUCHIFAT 1 23 Nov 22:15:59 22:18:48 17° 94° (E) 22:21:36 145.980
PHONESAT 2.4 23 Nov 22:17:37 22:20:14 18° 216° (SW) 22:22:50 2401.200-2431.200
FUNcube-1 23 Nov 22:19:16 22:23:13 38° 262° (W) 22:27:08 145.935
UKube-1 23 Nov 22:21:37 22:24:29 17° 265° (W) 22:27:22 .
CUBEBUG 1 23 Nov 22:22:25 22:26:39 46° 73° (ENE) 22:30:55 437.445
TISAT 1 23 Nov 22:22:45 22:23:24 10° 64° (ENE) 22:24:03 437.305
UNISAT 6 23 Nov 22:25:29 22:29:35 36° 98° (E) 22:33:45 437.425
NANOSAT C BR1 23 Nov 22:34:14 22:37:55 29° 97° (E) 22:41:35 145.865
CUBEBUG 2 23 Nov 22:34:30 22:37:35 19° 265° (W) 22:40:38 437.445
Oscar 11 23 Nov 22:37:05 22:37:59 11° 269° (W) 22:38:52 145.826/435.025
UWE-3 23 Nov 22:40:04 22:43:07 19° 265° (W) 22:46:08 435.000/436.395/437.385
RS-15 23 Nov 22:41:44 22:47:56 16° 21° (NNE) 22:54:14 29.354- 29.394
QB50P1 23 Nov 22:43:34 22:47:30 37° 98° (E) 22:51:25 145.935-145.965
ANTELSAT 23 Nov 22:53:40 22:58:07 78° 102° (ESE) 23:02:39 437.575/2403.000
ESTCUBE 1 23 Nov 23:01:08 23:05:37 60° 259° (W) 23:10:08 437.505/2401.250
CUSAT 1 23 Nov 23:04:37 23:07:04 14° 77° (ENE) 23:09:49 437.405
BUGSAT 1 23 Nov 23:07:24 23:11:27 60° 101° (E) 23:15:26 437.445
POPSAT HIP 1 23 Nov 23:07:48 23:12:02 77° 102° (ESE) 23:16:14 437.405
VELOX 1 23 Nov 23:13:34 23:16:19 16° 266° (W) 23:19:03 145.980
DANDE 23 Nov 23:19:00 23:21:46 15° 78° (ENE) 23:24:58 436.750
HUMSAT D 23 Nov 23:24:38 23:25:52 11° 268° (W) 23:27:07 437.325/437.525
50 SAT 23 Nov 23:30:09 23:31:18 11° 268° (W) 23:32:27 437.505
ISS 23 Nov 23:34:10 23:37:16 41° 133° (SE) 23:40:23 145.825
ITUPSAT 1 23 Nov 23:36:05 23:37:20 11° 63° (ENE) 23:38:35 437.325
POLYITAN 1 23 Nov 23:40:01 23:44:00 42° 287° (WNW) 23:47:59 437.675
QB50P2 23 Nov 23:43:07 23:47:03 38° 287° (WNW) 23:50:58 145.880/145.840
JUGNU 23 Nov 23:43:15 23:43:58 10° 165° (SSE) 23:44:41 437.505
SWISSCUBE 23 Nov 23:46:12 23:49:06 16° 65° (ENE) 23:52:00 437.505
TIGRISAT 23 Nov 23:50:21 23:53:56 25° 290° (WNW) 23:57:34 435.000
DUCHIFAT 1 23 Nov 23:50:58 23:54:43 32° 288° (WNW) 23:58:27 145.980
TISAT 1 23 Nov 23:54:28 23:58:41 61° 259° (W) 00:02:56 437.305
SPROUT 23 Nov 23:56:28 00:00:46 69° 259° (WSW) 00:05:05 437.525
CUBEBUG 1 24 Nov 00:01:00 00:03:14 14° 267° (W) 00:05:28 437.445
UNISAT 6 24 Nov 00:03:05 00:06:07 18° 292° (WNW) 00:09:10 437.425
AUBIESAT-1 24 Nov 00:08:12 00:11:57 45° 68° (ENE) 00:16:03 437.475
NANOSAT C BR1 24 Nov 00:10:33 00:13:36 20° 291° (WNW) 00:16:38 145.865
M-CUBED/EXP-1 PRIME 24 Nov 00:11:37 00:15:25 56° 69° (ENE) 00:19:36 437.505
BEESAT 24 Nov 00:16:21 00:20:31 30° 70° (ENE) 00:24:41 436.000
QB50P1 24 Nov 00:20:35 00:23:04 16° 293° (WNW) 00:25:33 145.935-145.965
CUSAT 1 24 Nov 00:45:28 00:50:03 58° 263° (W) 00:56:12 437.405
RS-15 24 Nov 00:53:23 01:04:08 48° 51° (NE) 01:15:17 29.354- 29.394
DANDE 24 Nov 01:00:44 01:05:04 47° 263° (W) 01:10:54 436.750
Oscar 19 24 Nov 01:03:17 01:07:42 28° 96° (E) 01:12:06 437.125/150
ITUPSAT 1 24 Nov 01:09:46 01:14:33 73° 258° (WSW) 01:19:23 437.325
ISS 24 Nov 01:11:32 01:14:02 20° 329° (NNW) 01:16:32 145.825
MaSat-1 24 Nov 01:14:38 01:16:51 40° 65° (ENE) 01:19:09 437.345
SWISSCUBE 24 Nov 01:21:54 01:26:32 48° 260° (W) 01:31:11 437.505
KKS-1 24 Nov 01:22:10 01:26:01 29° 70° (ENE) 01:29:51 437.445
JUGNU 24 Nov 01:28:41 01:32:11 16° 175° (S) 01:35:42 437.505
SRMSAT 24 Nov 01:36:03 01:38:21 12° 168° (SSE) 01:40:38 437.500
AUBIESAT-1 24 Nov 01:45:51 01:47:19 12° 265° (W) 01:48:49 437.475
ITAMSAT 1 24 Nov 01:50:57 01:55:29 30° 97° (E) 02:00:00 435.822/435.867
BEESAT 24 Nov 01:54:28 01:58:19 24° 264° (W) 02:02:11 436.000
Gurwin Techsat 1B 24 Nov 02:09:22 02:13:48 26° 96° (E) 02:18:11 435.225
STARS 24 Nov 02:22:17 02:26:42 85° 257° (WSW) 02:31:07 437.465
HORYU 2 24 Nov 02:32:45 02:35:40 17° 94° (E) 02:38:35 437.375
YUBILEINY 24 Nov 02:41:09 02:49:52 69° 93° (E) 02:58:34 435.215
Oscar 19 24 Nov 02:42:31 02:46:57 30° 291° (WNW) 02:51:23 437.125/150
AO-7 24 Nov 02:42:36 02:43:22 10° 89° (E) 02:44:08 29.400- 29.500
KKS-1 24 Nov 02:59:11 03:02:37 22° 264° (W) 03:06:04 437.445
RS-15 24 Nov 03:05:53 03:16:29 49° 251° (WSW) 03:27:35 29.354- 29.394
JUGNU 24 Nov 03:17:02 03:20:28 16° 186° (S) 03:23:54 437.505
SRMSAT 24 Nov 03:23:05 03:26:45 17° 178° (S) 03:30:26 437.500
SO-50 24 Nov 03:24:12 03:27:57 27° 111° (ESE) 03:31:49 436.795
ITAMSAT 1 24 Nov 03:30:30 03:34:51 28° 292° (WNW) 03:39:10 435.822/435.867
MOZHAYETS 4 24 Nov 03:46:44 03:50:34 27° 70° (ENE) 03:54:26
Gurwin Techsat 1B 24 Nov 03:49:01 03:53:43 33° 290° (WNW) 03:58:25 435.225
HORYU 2 24 Nov 04:08:18 04:12:27 38° 288° (WNW) 04:16:35 437.375
AO-7 24 Nov 04:28:58 04:37:20 71° 105° (ESE) 04:45:39 29.400- 29.500
YUBILEINY 24 Nov 04:40:48 04:47:20 23° 291° (WNW) 04:53:55 435.215
JAS-2 24 Nov 04:45:51 04:52:05 34° 94° (E) 04:57:40 435.910
STRAND 1 24 Nov 05:00:47 05:03:16 14° 63° (ENE) 05:05:45 437.568
SO-50 24 Nov 05:04:29 05:08:23 28° 308° (NW) 05:12:24 436.795
BEESAT 3 24 Nov 05:06:17 05:09:41 23° 52° (NE) 05:13:03 437.485
SRMSAT 24 Nov 05:12:01 05:15:11 15° 188° (S) 05:18:20 437.500
